Station Historical Data from High Park Village Toronto
 
Daily Summary for January 16, 2018 Units:  Metric    English   Both
« Previous Day
Next Day »
Daily Weekly Monthly Yearly Custom
  Current: High: Low: Average:
Temperature: -5.4 °C 1.6 °C -6.7 °C -3.8 °C
Dew Point: -9.5 °C -5.1 °C -9.5 °C -7.7 °C
Humidity: 73% 84% 49% 75%
Wind Speed: 5.6km/h 7.4km/h 0km/h 1.3km/h
Wind Gust: 5.6km/h 7.4km/h - -
WindSSW - - SSW
Pressure: 1028 hPa 1028.3 hPa 1024.9 hPa -
Precipitation: 0 mm      
Historical Graphs
 
 
Tabular Data for January 16, 2018
Time Temperature Dew Point Pressure Wind Wind Speed Wind Gust Humidity Rainfall Rate (Hourly) solar Conditions
00:05 -4.9 °C -7.9 °C 1025.3 hPa Calm     80% 0 mm 0.0 W/m2
00:11 -4.9 °C -7.9 °C 1025.3 hPa Calm     80% 0 mm 0.0 W/m2
00:18 -5 °C -7.9 °C 1025.3 hPa Calm     80% 0 mm 0.0 W/m2
00:25 -5.1 °C -7.9 °C 1025.3 hPa Calm     80% 0 mm 0.0 W/m2
00:37 -5.1 °C -7.9 °C 1025.3 hPa Calm     80% 0 mm 0.0 W/m2
00:46 -5.1 °C -7.9 °C 1025.3 hPa Calm     80% 0 mm 0.0 W/m2
00:55 -5 °C -7.9 °C 1024.9 hPa SW 1.6 km/h   80% 0 mm 0.0 W/m2
01:04 -4.9 °C -7.9 °C 1024.9 hPa Calm     80% 0 mm 0.0 W/m2
01:25 -4.8 °C -7.6 °C 1024.9 hPa Calm     81% 0 mm 0.0 W/m2
01:39 -4.8 °C -7.6 °C 1024.9 hPa SW 1.9 km/h 1.9 km/h 81% 0 mm 0.0 W/m2
01:47 -4.7 °C -7.7 °C 1025.3 hPa Calm     80% 0 mm 0.0 W/m2
01:53 -4.7 °C -7.5 °C 1025.3 hPa Calm     81% 0 mm 0.0 W/m2
02:02 -4.7 °C -7.5 °C 1025.3 hPa Calm     81% 0 mm 0.0 W/m2
02:09 -4.7 °C -7.5 °C 1025.3 hPa SW 1.9 km/h   81% 0 mm 0.0 W/m2
02:17 -4.7 °C -7.5 °C 1025.3 hPa Calm     81% 0 mm 0.0 W/m2
02:23 -4.7 °C -7.5 °C 1025.3 hPa Calm     81% 0 mm 0.0 W/m2
02:38 -4.7 °C -7.4 °C 1025.3 hPa Calm     81% 0 mm 0.0 W/m2
02:46 -4.7 °C -7.4 °C 1025.3 hPa Calm     81% 0 mm 0.0 W/m2
02:57 -4.6 °C -7.4 °C 1025.3 hPa Calm     81% 0 mm 0.0 W/m2
03:13 -4.8 °C -7.6 °C 1025.3 hPa Calm     81% 0 mm 0.0 W/m2
03:20 -4.7 °C -7.5 °C 1025.3 hPa Calm     81% 0 mm 0.0 W/m2
03:28 -4.7 °C -7.5 °C 1025.3 hPa Calm     81% 0 mm 0.0 W/m2
03:34 -4.7 °C -7.5 °C 1025.3 hPa Calm     81% 0 mm 0.0 W/m2
03:47 -4.8 °C -7.6 °C 1025.3 hPa Calm     81% 0 mm 0.0 W/m2
03:54 -4.8 °C -7.6 °C 1025.3 hPa Calm     81% 0 mm 0.0 W/m2
04:01 -4.8 °C -7.6 °C 1025.6 hPa Calm     81% 0 mm 0.0 W/m2
04:06 -4.8 °C -7.6 °C 1025.6 hPa Calm     81% 0 mm 0.0 W/m2
04:20 -4.9 °C -7.7 °C 1025.6 hPa Calm     81% 0 mm 0.0 W/m2
04:25 -4.9 °C -7.7 °C 1025.6 hPa Calm     81% 0 mm 0.0 W/m2
04:32 -5.1 °C -7.8 °C 1025.6 hPa Calm     81% 0 mm 0.0 W/m2
04:40 -5.1 °C -7.8 °C 1025.6 hPa Calm     81% 0 mm 0.0 W/m2
04:48 -5.1 °C -7.9 °C 1025.3 hPa Calm     81% 0 mm 0.0 W/m2
04:53 -5.2 °C -7.9 °C 1025.6 hPa Calm     81% 0 mm 0.0 W/m2
04:58 -5.1 °C -7.9 °C 1025.6 hPa Calm     81% 0 mm 0.0 W/m2
05:05 -5.2 °C -7.9 °C 1025.6 hPa Calm     81% 0 mm 0.0 W/m2
05:15 -5.2 °C -8 °C 1025.6 hPa WNW 1.9 km/h 1.9 km/h 81% 0 mm 0.0 W/m2
05:21 -5.2 °C -8 °C 1025.6 hPa Calm     81% 0 mm 0.0 W/m2
05:30 -5.3 °C -8.1 °C 1025.6 hPa NW 1.9 km/h 1.9 km/h 81% 0 mm 0.0 W/m2
05:35 -5.3 °C -8.1 °C 1025.6 hPa Calm     81% 0 mm 0.0 W/m2
05:43 -5.3 °C -8.1 °C 1026 hPa Calm     81% 0 mm 0.0 W/m2
05:49 -5.3 °C -7.9 °C 1026 hPa Calm     82% 0 mm 0.0 W/m2
05:58 -5.3 °C -8.1 °C 1026 hPa Calm     81% 0 mm 0.0 W/m2
06:06 -5.4 °C -8.1 °C 1026.3 hPa NNW 1.9 km/h 1.9 km/h 81% 0 mm 0.0 W/m2
06:11 -5.5 °C -8.2 °C 1026.3 hPa NNW 1.9 km/h 1.9 km/h 81% 0 mm 0.0 W/m2
06:18 -5.7 °C -8.4 °C 1026.3 hPa Calm     81% 0 mm 0.0 W/m2
06:23 -5.8 °C -8.6 °C 1026.3 hPa NNW 3.2 km/h 3.2 km/h 81% 0 mm 0.0 W/m2
06:29 -6 °C -8.7 °C 1026.3 hPa Calm     81% 0 mm 0.0 W/m2
06:35 -6.1 °C -8.7 °C 1026.3 hPa NNW 1.9 km/h 1.9 km/h 82% 0 mm 0.0 W/m2
06:41 -6.2 °C -8.8 °C 1026.3 hPa NNW 1.9 km/h 1.9 km/h 82% 0 mm 0.0 W/m2
06:47 -6.3 °C -8.8 °C 1026.3 hPa NNW 1.9 km/h 1.9 km/h 82% 0 mm 0.0 W/m2
06:55 -6.3 °C -8.9 °C 1026.3 hPa North 1.9 km/h 1.9 km/h 82% 0 mm 0.0 W/m2
07:09 -6.5 °C -9.1 °C 1026.3 hPa North 3.7 km/h 3.7 km/h 82% 0 mm 0.0 W/m2
07:14 -6.6 °C -9.2 °C 1026.6 hPa NE 3.7 km/h 3.7 km/h 82% 0 mm 0.0 W/m2
07:19 -6.6 °C -9 °C 1026.6 hPa North 3.7 km/h 3.7 km/h 83% 0 mm 0.0 W/m2
07:24 -6.7 °C -9.1 °C 1026.6 hPa North 5.6 km/h 5.6 km/h 83% 0 mm 0.0 W/m2 CLR
07:29 -6.7 °C -9.1 °C 1026.6 hPa North 1.9 km/h 1.9 km/h 83% 0 mm 0.0 W/m2 CLR
07:36 -6.7 °C -9.1 °C 1027 hPa Calm     83% 0 mm 0.0 W/m2 CLR
07:46 -6.6 °C -9 °C 1027 hPa North 1.9 km/h 1.9 km/h 83% 0 mm 0.0 W/m2 CLR
08:01 -6.6 °C -9 °C 1027 hPa Calm     83% 0 mm 0.0 W/m2 CLR
08:08 -6.6 °C -8.9 °C 1027 hPa North 3.7 km/h 3.7 km/h 83% 0 mm 0.0 W/m2 CLR
08:15 -6.6 °C -8.9 °C 1027 hPa North 3.7 km/h 3.7 km/h 83% 0 mm 0.0 W/m2 CLR
08:21 -6.6 °C -8.9 °C 1027 hPa Calm     83% 0 mm 5.0 W/m2 CLR
08:30 -6.4 °C -8.7 °C 1027.3 hPa North 1.9 km/h   84% 0 mm 7.0 W/m2 CLR
08:31 -2.1 °C -6.6 °C 1027.3 hPa Calm   1.6 km/h 71% 0 mm 0.0 W/m2 CLR
08:36 -2.1 °C -6.4 °C 1027.3 hPa Calm   3.2 km/h 72% 0 mm 0.0 W/m2 CLR
08:42 -6.1 °C -8.3 °C 1027.3 hPa Calm     84% 0 mm 18.0 W/m2 CLR
08:48 -5.9 °C -8.2 °C 1027.3 hPa Calm     84% 0 mm 14.0 W/m2 CLR
08:56 -5.7 °C -8 °C 1027.3 hPa Calm     84% 0 mm 16.0 W/m2 CLR
09:01 -5.7 °C -7.9 °C 1027.3 hPa Calm     84% 0 mm 16.0 W/m2 OVC
09:06 -5.6 °C -7.8 °C 1027.7 hPa Calm     84% 0 mm 21.0 W/m2 OVC
09:11 -5.4 °C -7.7 °C 1027.3 hPa North 1.9 km/h   84% 0 mm 25.0 W/m2 OVC
09:23 -5.4 °C -7.8 °C 1027.7 hPa Calm     83% 0 mm 30.0 W/m2 OVC
09:32 -5.2 °C -7.7 °C 1027.7 hPa Calm     83% 0 mm 44.0 W/m2 OVC
09:41 -5.1 °C -7.6 °C 1028 hPa North 1.9 km/h   83% 0 mm 40.0 W/m2 OVC
09:47 -5.1 °C -7.6 °C 1028 hPa Calm     83% 0 mm 47.0 W/m2 OVC
10:00 -5.1 °C -7.6 °C 1028.3 hPa Calm     83% 0 mm 40.0 W/m2 OVC
10:07 -5.1 °C -7.5 °C 1028.3 hPa Calm     83% 0 mm 37.0 W/m2 OVC
10:12 -4.9 °C -7.4 °C 1028.3 hPa Calm     83% 0 mm 60.0 W/m2 OVC
10:24 -4.9 °C -7.5 °C 1028.3 hPa North 1.9 km/h 1.9 km/h 82% 0 mm 42.0 W/m2 OVC
10:33 -4.9 °C -7.6 °C 1028.3 hPa Calm     82% 0 mm 42.0 W/m2 OVC
10:41 -4.9 °C -7.7 °C 1028.3 hPa North 1.9 km/h 1.9 km/h 81% 0 mm 60.0 W/m2 OVC
10:46 -4.8 °C -7.6 °C 1028 hPa Calm     81% 0 mm 67.0 W/m2 OVC
10:52 -4.7 °C -7.5 °C 1028 hPa North 1.9 km/h   81% 0 mm 56.0 W/m2 OVC
11:02 -4.5 °C -7.3 °C 1028 hPa North 3.7 km/h   81% 0 mm 90.0 W/m2 OVC
11:30 -3.5 °C -6.4 °C 1027.7 hPa North 1.9 km/h   80% 0 mm 104.0 W/m2 OVC
11:40 -3.4 °C -6.7 °C 1027.7 hPa North 1.9 km/h 1.9 km/h 78% 0 mm 83.0 W/m2 OVC
11:46 -3.4 °C -6.7 °C 1027.7 hPa North 1.6 km/h 1.6 km/h 78% 0 mm 102.0 W/m2 OVC
11:58 -2.8 °C -6.1 °C 1027.7 hPa SSW 1.6 km/h 1.6 km/h 78% 0 mm 357.0 W/m2 OVC
12:03 -2.6 °C -6.1 °C 1027.7 hPa SSW 1.9 km/h 1.9 km/h 77% 0 mm 97.0 W/m2 OVC
12:19 -2.2 °C -6 °C 1027.7 hPa Calm     75% 0 mm 114.0 W/m2 OVC
12:28 -1.8 °C -5.8 °C 1027.7 hPa SSW 3.7 km/h 3.7 km/h 74% 0 mm 392.0 W/m2 OVC
12:45 -0.8 °C -5.3 °C 1027 hPa SSW 1.9 km/h 1.9 km/h 72% 0 mm 457.0 W/m2 OVC
12:50 -0.7 °C -5.5 °C 1027 hPa SSW 3.7 km/h 3.7 km/h 70% 0 mm 188.0 W/m2 OVC
13:01 -0.2 °C -5.2 °C 1027 hPa NW 3.7 km/h 3.7 km/h 69% 0 mm 399.0 W/m2 OVC
13:07 -0.1 °C -5.1 °C 1026.6 hPa Calm     69% 0 mm 441.0 W/m2 OVC
13:19 0 °C -5.2 °C 1026.6 hPa North 1.9 km/h   68% 0 mm 448.0 W/m2 OVC
13:26 0.1 °C -5.6 °C 1027 hPa NNW 3.2 km/h 3.2 km/h 66% 0 mm 227.0 W/m2 OVC
13:34 0.1 °C -5.7 °C 1026.6 hPa WNW 1.6 km/h 1.6 km/h 65% 0 mm 227.0 W/m2 OVC
13:41 0.2 °C -6.5 °C 1026.6 hPa NNW 4.8 km/h 4.8 km/h 61% 0 mm 153.0 W/m2 OVC
13:50 -0.1 °C -6.9 °C 1026.6 hPa Calm     60% 0 mm 380.0 W/m2 OVC
13:55 0.2 °C -7.1 °C 1026.6 hPa Calm     58% 0 mm 378.0 W/m2 OVC
14:10 -0.1 °C -8.3 °C 1026.3 hPa WNW 5.6 km/h 5.6 km/h 54% 0 mm 352.0 W/m2 OVC
14:16 0.2 °C -8.3 °C 1026.3 hPa NNW 3.2 km/h 3.2 km/h 53% 0 mm 338.0 W/m2 OVC
14:21 -0.1 °C -8.8 °C 1026.3 hPa NNW 5.6 km/h 5.6 km/h 52% 0 mm 329.0 W/m2 OVC
14:30 1.3 °C -7.5 °C 1026.3 hPa SSW 3.7 km/h 3.7 km/h 52% 0 mm 301.0 W/m2 OVC
14:38 1.6 °C -7.7 °C 1026.6 hPa SSW 1.9 km/h 1.9 km/h 50% 0 mm 74.0 W/m2 OVC
14:54 0.3 °C -9.2 °C 1026.6 hPa North 7.4 km/h 7.4 km/h 49% 0 mm 76.0 W/m2 OVC
15:10 -0.6 °C -9 °C 1026.6 hPa Calm     53% 0 mm 70.0 W/m2 OVC
15:17 -0.7 °C -8.9 °C 1026.6 hPa North 1.9 km/h 1.9 km/h 54% 0 mm 79.0 W/m2 OVC
15:26 -0.9 °C -8.6 °C 1026.6 hPa Calm     56% 0 mm 69.0 W/m2 OVC
15:33 -0.9 °C -8.4 °C 1026.6 hPa Calm   0.2 km/h 57% 0 mm 49.0 W/m2 OVC
15:44 -0.7 °C -8.2 °C 1026.6 hPa SW 1.9 km/h 1.9 km/h 57% 0 mm 42.0 W/m2 OVC
15:57 -0.7 °C -8.4 °C 1026.6 hPa SSW 3.7 km/h 3.7 km/h 56% 0 mm 35.0 W/m2 OVC
16:04 -0.9 °C -8.4 °C 1026.6 hPa SSW 1.9 km/h 1.9 km/h 57% 0 mm 32.0 W/m2 CLR
16:11 -1.1 °C -8.1 °C 1026.6 hPa Calm   0.2 km/h 59% 0 mm 32.0 W/m2 CLR
16:17 -1.2 °C -7.7 °C 1027 hPa SSW 1.9 km/h 1.9 km/h 61% 0 mm 33.0 W/m2 CLR
16:22 -1.2 °C -7.4 °C 1027 hPa SSW 5.6 km/h 5.6 km/h 63% 0 mm 26.0 W/m2 CLR
16:41 -1.5 °C -7.1 °C 1027 hPa Calm   0.2 km/h 66% 0 mm 16.0 W/m2 CLR
16:53 -1.7 °C -7 °C 1027 hPa Calm     67% 0 mm 7.0 W/m2 CLR
17:00 -1.7 °C -6.8 °C 1027 hPa Calm     68% 0 mm 0.0 W/m2 CLR
17:02 -1.8 °C -6.9 °C 1027 hPa Calm     68% 0 mm 0.0 W/m2 CLR
17:08 -1.8 °C -6.9 °C 1027 hPa Calm     68% 0 mm 0.0 W/m2 CLR
17:18 -1.8 °C -6.9 °C 1027 hPa Calm     68% 0 mm 0.0 W/m2 CLR
17:31 -1.8 °C -6.8 °C 1027 hPa Calm     69% 0 mm 0.0 W/m2 CLR
17:37 -1.8 °C -6.8 °C 1027 hPa Calm     69% 0 mm 0.0 W/m2 CLR
17:47 -1.9 °C -6.8 °C 1027 hPa Calm     69% 0 mm 0.0 W/m2
17:56 -1.9 °C -6.6 °C 1027 hPa Calm     70% 0 mm 0.0 W/m2
18:06 -1.9 °C -6.6 °C 1027 hPa Calm     70% 0 mm 0.0 W/m2
18:19 -2.1 °C -6.8 °C 1027.3 hPa NNW 3.7 km/h   70% 0 mm 0.0 W/m2
18:46 -2.1 °C -6.4 °C 1027.7 hPa SW 3.7 km/h 3.7 km/h 72% 0 mm 0.0 W/m2
18:52 -2.1 °C -6.5 °C 1027.3 hPa SW 1.9 km/h 1.9 km/h 72% 0 mm 0.0 W/m2
19:22 -2.5 °C -6.7 °C 1027.7 hPa Calm     73% 0 mm 0.0 W/m2
19:33 -2.8 °C -6.9 °C 1027.7 hPa Calm     73% 0 mm 0.0 W/m2
19:39 -2.9 °C -7.1 °C 1027.7 hPa North 4.8 km/h 4.8 km/h 73% 0 mm 0.0 W/m2
19:48 -3.2 °C -7.3 °C 1027.7 hPa Calm     73% 0 mm 0.0 W/m2
20:13 -3.2 °C -7.2 °C 1027.7 hPa NNW 1.9 km/h   74% 0 mm 0.0 W/m2
20:23 -3.2 °C -7.2 °C 1027.7 hPa North 3.7 km/h   74% 0 mm 0.0 W/m2
20:33 -3.4 °C -7.4 °C 1027.7 hPa NNW 1.9 km/h 1.9 km/h 74% 0 mm 0.0 W/m2
20:48 -3.5 °C -7.4 °C 1027.7 hPa Calm     74% 0 mm 0.0 W/m2
20:54 -3.5 °C -7.4 °C 1027.7 hPa SSW 1.6 km/h   74% 0 mm 0.0 W/m2
20:59 -3.6 °C -7.5 °C 1028 hPa Calm     74% 0 mm 0.0 W/m2
21:04 -3.6 °C -7.8 °C 1028 hPa Calm     73% 0 mm 0.0 W/m2
21:09 -3.8 °C -7.9 °C 1028 hPa Calm   0.2 km/h 73% 0 mm 0.0 W/m2
21:34 -4.6 °C -8.7 °C 1028 hPa SSW 1.9 km/h   73% 0 mm 0.0 W/m2
21:42 -4.7 °C -8.8 °C 1028 hPa SSW 5.6 km/h 5.6 km/h 73% 0 mm 0.0 W/m2
21:50 -4.7 °C -8.7 °C 1028 hPa SSW 3.7 km/h 3.7 km/h 74% 0 mm 0.0 W/m2
22:03 -5.2 °C -9.3 °C 1028 hPa South 3.7 km/h 3.7 km/h 73% 0 mm 0.0 W/m2
22:08 -5.4 °C -9.5 °C 1028 hPa SSW 5.6 km/h 5.6 km/h 73% 0 mm 0.0 W/m2
Historical Data from High Park Village Toronto since August 2007
Compliments of Weather Underground - 2.5 mb